164  
ASUS43 KBIS 271902  
RWRBIS  
 
NWR BROADCAST TEXT  
NATIONAL WEATHER SERVICE BISMARCK ND  
200 PM CDT TUE JUN 27 2017  
 
NOTE: "FAIR" INDICATES FEW OR NO CLOUDS BELOW 12,000 FEET WITH NO  
SIGNIFICANT WEATHER AND/OR S TO VISIBILITY
.  
 
 
CITY SKY/WX TMP DP RH WIND PRES REMARKS
 
WILLISTON MOSUNNY 88 46 23 W8 29.55S  
MINOT SUNNY 83 52 34 S17 29.56F  
MINOT AFB SUNNY 82 53 36 S15 29.55F  
BISMARCK MOSUNNY 84 56 38 S21G32 29.62F  
DICKINSON MOSUNNY 86 50 28 S14 29.57F  
GARRISON N/A 80 54 40 S18 29.58F  
HETTINGER ARPT CLOUDY 88 55 32 SW15 29.62F  
JAMESTOWN CLOUDY 74 46 36 S26G36 29.71F  
HAZEN FAIR 84 54 34 S15G25 29.59F  
LINTON FAIR N/A N/A N/A S24G31 29.66F  
MANDAN FAIR 82 55 39 S24G37 29.62F  
STANLEY FAIR 79 50 36 S17 29.60S  
TIOGA FAIR 79 50 36 S10G17 29.58F  
WATFORD CITY FAIR 84 52 32 SW8G22 29.55S  

 
 
CITY SKY/WX TMP DP RH WIND PRES REMARKS
 
GRAND FORKS MOSUNNY 80 48 32 S23G30 29.73F  
GRAND FORKS AF MOSUNNY 78 46 31 S20G28 29.73F  
DEVILS LAKE SUNNY 72 49 44 S22G30 29.70F  
FARGO CLOUDY 76 43 30 S25G33 29.79F  
CAVALIER FAIR 79 46 31 S17G28 29.70S  
GRAFTON FAIR 79 46 31 S21G30 29.73F  
GWINNER CLOUDY 75 48 38 S21G26 29.79F  
LANGDON FAIR 77 48 36 S29G37 29.69F  
ROLLA N/A 73 54 49 S24G36 29.64F  

 
 
CITY SKY/WX TMP DP RH WIND PRES REMARKS
 
ABERDEEN MOSUNNY 78 49 35 S26G40 29.74F  
MOBRIDGE MOSUNNY 83 54 36 S28G35 29.63F  
BUFFALO N/A 90 45 21 W24G36 29.56F  
RAPID CITY CLOUDY 84 57 39 VRB3 29.66S  
GLASGOW CLOUDY 80 49 33 NW24 29.61S  
SIDNEY CLOUDY 90 47 22 NW21G26 29.53F  
WOLF POINT CLOUDY 87 49 26 W21G29 29.58R  
GLENDIVE MOSUNNY 88 46 23 NW21G26 29.59S  
MILES CITY CLOUDY 85 44 23 NW18 29.64S  
BAKER MOSUNNY 89 43 20 MISG 29.63S  

 
 
CITY SKY/WX TMP DP RH WIND PRES REMARKS
 
BILLINGS CLOUDY 82 46 28 NW14G24 29.75F  
GREAT FALLS CLOUDY 76 47 35 S12 29.78S  

 
 
 
 
CLICK HERE TO GO TO PREVIOUS BULLETINS.

The Nexlab ND Page Main Text Page